Overview Statistics Trail Chart Weather Telemetry Raw packets
 

This is the latest recevied weather packets stored in our database for station/object 9W2XPF-13. If no packets are shown the sender has not sent any weather packets the latest 10 day(s).

<< 110 111 112 113 114 115 116 >>
Time Temp. Humidity Pressure Rain* Wind** Luminosity Snow
1777272122 32.78° C 70% 1006.3 hPa 0 mm - - -
1777272002 32.78° C 69% 1006.4 hPa 0 mm - - -
1777271882 32.78° C 68% 1006.5 hPa 0 mm - - -
1777271762 32.78° C 71% 1006.4 hPa 0 mm - - -
1777271642 33.33° C 69% 1006.6 hPa 0 mm - - -
1777271522 33.33° C 68% 1006.5 hPa 0 mm - - -
1777271402 33.33° C 69% 1006.5 hPa 0 mm - - -
1777271282 33.89° C 68% 1006.5 hPa 0 mm - - -
1777271162 33.33° C 67% 1006.6 hPa 0 mm - - -
1777271042 33.33° C 67% 1006.8 hPa 0 mm - - -
1777270922 33.33° C 67% 1006.8 hPa 0 mm - - -
1777270802 33.33° C 67% 1006.7 hPa 0 mm - - -
1777270682 33.89° C 67% 1007 hPa 0 mm - - -
1777270562 33.89° C 64% 1006.7 hPa 0 mm - - -
1777270442 33.89° C 63% 1006.8 hPa 0 mm - - -
1777270321 33.89° C 63% 1006.9 hPa 0 mm - - -
1777270202 33.33° C 64% 1007 hPa 0 mm - - -
1777270082 33.33° C 64% 1006.9 hPa 0 mm - - -
1777269962 33.33° C 65% 1007 hPa 0 mm - - -
1777269842 33.33° C 66% 1007 hPa 0 mm - - -
1777269722 33.89° C 65% 1007 hPa 0 mm - - -
1777269602 33.89° C 65% 1007.1 hPa 0 mm - - -
1777269482 33.33° C 68% 1007 hPa 0 mm - - -
1777269362 33.33° C 69% 1007.1 hPa 0 mm - - -
1777269242 33.33° C 70% 1007 hPa 0 mm - - -

* Rain latest hour (hover to see other rain measurements)
** Current wind speed in m/s (hover to see current wind gust speed)